Year,Month,Day,Hour,Minute,Value (Times are PST for temperature in C)
2018,07,18,00,00,16.40
2018,07,18,00,01,16.40
2018,07,18,00,02,16.40
2018,07,18,00,03,16.40
2018,07,18,00,04,16.40
2018,07,18,00,05,16.40
2018,07,18,00,06,16.40
2018,07,18,00,07,16.40
2018,07,18,00,08,16.40
2018,07,18,00,09,16.40
2018,07,18,00,10,16.40
2018,07,18,00,11,16.40
2018,07,18,00,12,16.40
2018,07,18,00,13,16.30
2018,07,18,00,14,16.30
2018,07,18,00,15,16.30
2018,07,18,00,16,16.30
2018,07,18,00,17,16.20
2018,07,18,00,18,16.20
2018,07,18,00,19,16.20
2018,07,18,00,20,16.20
2018,07,18,00,21,16.20
2018,07,18,00,22,16.20
2018,07,18,00,23,16.10
2018,07,18,00,24,16.10
2018,07,18,00,25,16.10
2018,07,18,00,26,16.10
2018,07,18,00,27,16.10
2018,07,18,00,28,16.10
2018,07,18,00,29,16.10
2018,07,18,00,30,16.10
2018,07,18,00,31,16.10
2018,07,18,00,32,16.10
2018,07,18,00,33,16.10
2018,07,18,00,34,16.10
2018,07,18,00,35,16.10
2018,07,18,00,36,16.10
2018,07,18,00,37,16.10
2018,07,18,00,38,16.10
2018,07,18,00,39,16.10
2018,07,18,00,40,16.10
2018,07,18,00,41,16.10
2018,07,18,00,42,16.10
2018,07,18,00,43,16.10
2018,07,18,00,44,16.10
2018,07,18,00,45,16.10
2018,07,18,00,46,16.10
2018,07,18,00,47,16.10
2018,07,18,00,48,16.10
2018,07,18,00,49,16.10
2018,07,18,00,50,16.10
2018,07,18,00,51,16.10
2018,07,18,00,52,16.10
2018,07,18,00,53,16.10
2018,07,18,00,54,16.10
2018,07,18,00,55,16.10
2018,07,18,00,56,16.10
2018,07,18,00,57,16.10
2018,07,18,00,58,16.10
2018,07,18,00,59,16.10
2018,07,18,01,00,16.10
2018,07,18,01,01,16.00
2018,07,18,01,02,15.90
2018,07,18,01,03,15.90
2018,07,18,01,04,15.90
2018,07,18,01,05,15.90
2018,07,18,01,06,15.90
2018,07,18,01,07,15.90
2018,07,18,01,08,15.90
2018,07,18,01,09,15.90
2018,07,18,01,10,15.80
2018,07,18,01,11,15.80
2018,07,18,01,12,15.80
2018,07,18,01,13,15.80
2018,07,18,01,14,15.80
2018,07,18,01,15,15.80
2018,07,18,01,16,15.80
2018,07,18,01,17,15.80
2018,07,18,01,18,15.80
2018,07,18,01,19,15.80
2018,07,18,01,20,15.70
2018,07,18,01,21,15.70
2018,07,18,01,22,15.70
2018,07,18,01,23,15.70
2018,07,18,01,24,15.70
2018,07,18,01,25,15.70
2018,07,18,01,26,15.70
2018,07,18,01,27,15.70
2018,07,18,01,28,15.70
2018,07,18,01,29,15.70
2018,07,18,01,30,15.70
2018,07,18,01,31,15.70
2018,07,18,01,32,15.70
2018,07,18,01,33,15.60
2018,07,18,01,34,15.60
2018,07,18,01,35,15.60
2018,07,18,01,36,15.60
2018,07,18,01,37,15.60
2018,07,18,01,38,15.60
2018,07,18,01,39,15.60
2018,07,18,01,40,15.60
2018,07,18,01,41,15.60
2018,07,18,01,42,15.60
2018,07,18,01,43,15.60
2018,07,18,01,44,15.60
2018,07,18,01,45,15.50
2018,07,18,01,46,15.50
2018,07,18,01,47,15.50
2018,07,18,01,48,15.50
2018,07,18,01,49,15.50
2018,07,18,01,50,15.40
2018,07,18,01,51,15.40
2018,07,18,01,52,15.40
2018,07,18,01,53,15.30
2018,07,18,01,54,15.30
2018,07,18,01,55,15.30
2018,07,18,01,56,15.30
2018,07,18,01,57,15.30
2018,07,18,01,58,15.30
2018,07,18,01,59,15.20
2018,07,18,02,00,15.20
2018,07,18,02,01,15.10
2018,07,18,02,02,15.10
2018,07,18,02,03,15.10
2018,07,18,02,04,15.00
2018,07,18,02,05,15.00
2018,07,18,02,06,14.90
2018,07,18,02,07,14.90
2018,07,18,02,08,14.80
2018,07,18,02,09,14.80
2018,07,18,02,10,14.80
2018,07,18,02,11,14.80
2018,07,18,02,12,14.80
2018,07,18,02,13,14.80
2018,07,18,02,14,14.70
2018,07,18,02,15,14.70
2018,07,18,02,16,14.70
2018,07,18,02,17,14.70
2018,07,18,02,18,14.60
2018,07,18,02,19,14.60
2018,07,18,02,20,14.60
2018,07,18,02,21,14.60
2018,07,18,02,22,14.60
2018,07,18,02,23,14.60
2018,07,18,02,24,14.60
2018,07,18,02,25,14.60
2018,07,18,02,26,14.50
2018,07,18,02,27,14.50
2018,07,18,02,28,14.50
2018,07,18,02,29,14.50
2018,07,18,02,30,14.50
2018,07,18,02,31,14.50
2018,07,18,02,32,14.50
2018,07,18,02,33,14.50
2018,07,18,02,34,14.50
2018,07,18,02,35,14.50
2018,07,18,02,36,14.50
2018,07,18,02,37,14.50
2018,07,18,02,38,14.50
2018,07,18,02,39,14.50
2018,07,18,02,40,14.50
2018,07,18,02,41,14.50
2018,07,18,02,42,14.40
2018,07,18,02,43,14.40
2018,07,18,02,44,14.40
2018,07,18,02,45,14.40
2018,07,18,02,46,14.40
2018,07,18,02,47,14.40
2018,07,18,02,48,14.40
2018,07,18,02,49,14.40
2018,07,18,02,50,14.40
2018,07,18,02,51,14.40
2018,07,18,02,52,14.40
2018,07,18,02,53,14.40
2018,07,18,02,54,14.30
2018,07,18,02,55,14.30
2018,07,18,02,56,14.30
2018,07,18,02,57,14.30
2018,07,18,02,58,14.30
2018,07,18,02,59,14.20
2018,07,18,03,00,14.20
2018,07,18,03,01,14.20
2018,07,18,03,02,14.20
2018,07,18,03,03,14.20
2018,07,18,03,04,14.10
2018,07,18,03,05,14.00
2018,07,18,03,06,14.00
2018,07,18,03,07,13.90
2018,07,18,03,08,13.80
2018,07,18,03,09,13.70
2018,07,18,03,10,13.70
2018,07,18,03,11,13.70
2018,07,18,03,12,13.70
2018,07,18,03,13,13.60
2018,07,18,03,14,13.60
2018,07,18,03,15,13.60
2018,07,18,03,16,13.60
2018,07,18,03,17,13.60
2018,07,18,03,18,13.60
2018,07,18,03,19,13.60
2018,07,18,03,20,13.60
2018,07,18,03,21,13.60
2018,07,18,03,22,13.60
2018,07,18,03,23,13.60
2018,07,18,03,24,13.60
2018,07,18,03,25,13.70
2018,07,18,03,26,13.70
2018,07,18,03,27,13.70
2018,07,18,03,28,13.70
2018,07,18,03,29,13.70
2018,07,18,03,30,13.70
2018,07,18,03,31,13.70
2018,07,18,03,32,13.70
2018,07,18,03,33,13.70
2018,07,18,03,34,13.60
2018,07,18,03,35,13.60
2018,07,18,03,36,13.60
2018,07,18,03,37,13.60
2018,07,18,03,38,13.60
2018,07,18,03,39,13.60
2018,07,18,03,40,13.60
2018,07,18,03,41,13.50
2018,07,18,03,42,13.50
2018,07,18,03,43,13.50
2018,07,18,03,44,13.50
2018,07,18,03,45,13.50
2018,07,18,03,46,13.50
2018,07,18,03,47,13.50
2018,07,18,03,48,13.50
2018,07,18,03,49,13.40
2018,07,18,03,50,13.40
2018,07,18,03,51,13.40
2018,07,18,03,52,13.40
2018,07,18,03,53,13.40
2018,07,18,03,54,13.40
2018,07,18,03,55,13.40
2018,07,18,03,56,13.40
2018,07,18,03,57,13.40
2018,07,18,03,58,13.30
2018,07,18,03,59,13.30
2018,07,18,04,00,13.30
2018,07,18,04,01,13.30
2018,07,18,04,02,13.30
2018,07,18,04,03,13.30
2018,07,18,04,04,13.30
2018,07,18,04,05,13.30
2018,07,18,04,06,13.30
2018,07,18,04,07,13.30
2018,07,18,04,08,13.20
2018,07,18,04,09,13.20
2018,07,18,04,10,13.20
2018,07,18,04,11,13.20
2018,07,18,04,12,13.20
2018,07,18,04,13,13.10
2018,07,18,04,14,13.10
2018,07,18,04,15,13.10
2018,07,18,04,16,13.10
2018,07,18,04,17,13.10
2018,07,18,04,18,13.00
2018,07,18,04,19,13.00
2018,07,18,04,20,13.00
2018,07,18,04,21,12.90
2018,07,18,04,22,12.90
2018,07,18,04,23,12.90
2018,07,18,04,24,12.80
2018,07,18,04,25,12.80
2018,07,18,04,26,12.80
2018,07,18,04,27,12.80
2018,07,18,04,28,12.80
2018,07,18,04,29,12.80
2018,07,18,04,30,12.80
2018,07,18,04,31,12.80
2018,07,18,04,32,12.80
2018,07,18,04,33,12.80
2018,07,18,04,34,12.80
2018,07,18,04,35,12.80
2018,07,18,04,36,12.70
2018,07,18,04,37,12.70
2018,07,18,04,38,12.70
2018,07,18,04,39,12.70
2018,07,18,04,40,12.70
2018,07,18,04,41,12.60
2018,07,18,04,42,12.60
2018,07,18,04,43,12.60
2018,07,18,04,44,12.60
2018,07,18,04,45,12.60
2018,07,18,04,46,12.60
2018,07,18,04,47,12.50
2018,07,18,04,48,12.50
2018,07,18,04,49,12.50
2018,07,18,04,50,12.50
2018,07,18,04,51,12.50
2018,07,18,04,52,12.50
2018,07,18,04,53,12.50
2018,07,18,04,54,12.50
2018,07,18,04,55,12.40
2018,07,18,04,56,12.40
2018,07,18,04,57,12.40
2018,07,18,04,58,12.40
2018,07,18,04,59,12.40
2018,07,18,05,00,12.30
2018,07,18,05,01,12.30
2018,07,18,05,02,12.30
2018,07,18,05,03,12.30
2018,07,18,05,04,12.30
2018,07,18,05,05,12.30
2018,07,18,05,06,12.30
2018,07,18,05,07,12.30
2018,07,18,05,08,12.30
2018,07,18,05,09,12.30
2018,07,18,05,10,12.30
2018,07,18,05,11,12.30
2018,07,18,05,12,12.30
2018,07,18,05,13,12.30
2018,07,18,05,14,12.30
2018,07,18,05,15,12.30
2018,07,18,05,16,12.30
2018,07,18,05,17,12.30
2018,07,18,05,18,12.30
2018,07,18,05,19,12.30
2018,07,18,05,20,12.30
2018,07,18,05,21,12.30
2018,07,18,05,22,12.30
2018,07,18,05,23,12.30
2018,07,18,05,24,12.30
2018,07,18,05,25,12.30
2018,07,18,05,26,12.30
2018,07,18,05,27,12.20
2018,07,18,05,28,12.20
2018,07,18,05,29,12.20
2018,07,18,05,30,12.20
2018,07,18,05,31,12.20
2018,07,18,05,32,12.20
2018,07,18,05,33,12.20
2018,07,18,05,34,12.20
2018,07,18,05,35,12.20
2018,07,18,05,36,12.20
2018,07,18,05,37,12.10
2018,07,18,05,38,12.10
2018,07,18,05,39,12.10
2018,07,18,05,40,12.10
2018,07,18,05,41,12.10
2018,07,18,05,42,12.10
2018,07,18,05,43,12.10
2018,07,18,05,44,12.10
2018,07,18,05,45,12.10
2018,07,18,05,46,12.10
2018,07,18,05,47,12.10
2018,07,18,05,48,12.10
2018,07,18,05,49,12.10
2018,07,18,05,50,12.10
2018,07,18,05,51,12.00
2018,07,18,05,52,12.00
2018,07,18,05,53,12.10
2018,07,18,05,54,12.10
2018,07,18,05,55,12.00
2018,07,18,05,56,12.00
2018,07,18,05,57,12.00
2018,07,18,05,58,12.00
2018,07,18,05,59,12.00
2018,07,18,06,00,12.00
2018,07,18,06,01,12.00
2018,07,18,06,02,12.10
2018,07,18,06,03,12.10
2018,07,18,06,04,12.10
2018,07,18,06,05,12.10
2018,07,18,06,06,12.10
2018,07,18,06,07,12.10
2018,07,18,06,08,12.10
2018,07,18,06,09,12.10
2018,07,18,06,10,12.20
2018,07,18,06,11,12.20
2018,07,18,06,12,12.20
2018,07,18,06,13,12.20
2018,07,18,06,14,12.20
2018,07,18,06,15,12.20
2018,07,18,06,16,12.30
2018,07,18,06,17,12.30
2018,07,18,06,18,12.30
2018,07,18,06,19,12.30
2018,07,18,06,20,12.30
2018,07,18,06,21,12.30
2018,07,18,06,22,12.30
2018,07,18,06,23,12.30
2018,07,18,06,24,12.30
2018,07,18,06,25,12.30
2018,07,18,06,26,12.30
2018,07,18,06,27,12.30
2018,07,18,06,28,12.30
2018,07,18,06,29,12.20
2018,07,18,06,30,12.20
2018,07,18,06,31,12.20
2018,07,18,06,32,12.20
2018,07,18,06,33,12.20
2018,07,18,06,34,12.20
2018,07,18,06,35,12.20
2018,07,18,06,36,12.20
2018,07,18,06,37,12.30
2018,07,18,06,38,12.30
2018,07,18,06,39,12.30
2018,07,18,06,40,12.30
2018,07,18,06,41,12.30
2018,07,18,06,42,12.30
2018,07,18,06,43,12.30
2018,07,18,06,44,12.30
2018,07,18,06,45,12.30
2018,07,18,06,46,12.30
2018,07,18,06,47,12.30
2018,07,18,06,48,12.30
2018,07,18,06,49,12.30
2018,07,18,06,50,12.30
2018,07,18,06,51,12.30
2018,07,18,06,52,12.30
2018,07,18,06,53,12.40
2018,07,18,06,54,12.40
2018,07,18,06,55,12.40
2018,07,18,06,56,12.40
2018,07,18,06,57,12.40
2018,07,18,06,58,12.40
2018,07,18,06,59,12.40
2018,07,18,07,00,12.40
2018,07,18,07,01,12.40
2018,07,18,07,02,12.40
2018,07,18,07,03,12.50
2018,07,18,07,04,12.50
2018,07,18,07,05,12.50
2018,07,18,07,06,12.50
2018,07,18,07,07,12.50
2018,07,18,07,08,12.50
2018,07,18,07,09,12.50
2018,07,18,07,10,12.50
2018,07,18,07,11,12.50
2018,07,18,07,12,12.50
2018,07,18,07,13,12.60
2018,07,18,07,14,12.60
2018,07,18,07,15,12.60
2018,07,18,07,16,12.60
2018,07,18,07,17,12.60
2018,07,18,07,18,12.60
2018,07,18,07,19,12.70
2018,07,18,07,20,12.70
2018,07,18,07,21,12.70
2018,07,18,07,22,12.70
2018,07,18,07,23,12.70
2018,07,18,07,24,12.70
2018,07,18,07,25,12.70
2018,07,18,07,26,12.70
2018,07,18,07,27,12.70
2018,07,18,07,28,12.70
2018,07,18,07,29,12.70
2018,07,18,07,30,12.70
2018,07,18,07,31,12.70
2018,07,18,07,32,12.70
2018,07,18,07,33,12.70
2018,07,18,07,34,12.70
2018,07,18,07,35,12.70
2018,07,18,07,36,12.80
2018,07,18,07,37,12.80
2018,07,18,07,38,12.80
2018,07,18,07,39,12.80
2018,07,18,07,40,12.80
2018,07,18,07,41,12.80
2018,07,18,07,42,12.80
2018,07,18,07,43,12.80
2018,07,18,07,44,12.80
2018,07,18,07,45,12.80
2018,07,18,07,46,12.90
2018,07,18,07,47,12.90
2018,07,18,07,48,13.00
2018,07,18,07,49,13.00
2018,07,18,07,50,13.00
2018,07,18,07,51,12.90
2018,07,18,07,52,13.00
2018,07,18,07,53,13.00
2018,07,18,07,54,13.00
2018,07,18,07,55,13.00
2018,07,18,07,56,13.00
2018,07,18,07,57,13.00
2018,07,18,07,58,13.00
2018,07,18,07,59,13.10
2018,07,18,08,00,13.10
2018,07,18,08,01,13.10
2018,07,18,08,02,13.10
2018,07,18,08,03,13.10
2018,07,18,08,04,13.10
2018,07,18,08,05,13.20
2018,07,18,08,06,13.20
2018,07,18,08,07,13.20
2018,07,18,08,08,13.20
2018,07,18,08,09,13.20
2018,07,18,08,10,13.20
2018,07,18,08,11,13.20
2018,07,18,08,12,13.20
2018,07,18,08,13,13.20
2018,07,18,08,14,13.30
2018,07,18,08,15,13.30
2018,07,18,08,16,13.30
2018,07,18,08,17,13.30
2018,07,18,08,18,13.40
2018,07,18,08,19,13.40
2018,07,18,08,20,13.40
2018,07,18,08,21,13.50
2018,07,18,08,22,13.50
2018,07,18,08,23,13.50
2018,07,18,08,24,13.50
2018,07,18,08,25,13.50
2018,07,18,08,26,13.60
2018,07,18,08,27,13.60
2018,07,18,08,28,13.70
2018,07,18,08,29,13.60
2018,07,18,08,30,13.60
2018,07,18,08,31,13.60
2018,07,18,08,32,13.60
2018,07,18,08,33,13.60
2018,07,18,08,34,13.60
2018,07,18,08,35,13.70
2018,07,18,08,36,13.70
2018,07,18,08,37,13.70
2018,07,18,08,38,13.70
2018,07,18,08,39,13.70
2018,07,18,08,40,13.70
2018,07,18,08,41,13.70
2018,07,18,08,42,13.70
2018,07,18,08,43,13.70
2018,07,18,08,44,13.70
2018,07,18,08,45,13.60
2018,07,18,08,46,13.60
2018,07,18,08,47,13.50
2018,07,18,08,48,13.60
2018,07,18,08,49,13.70
2018,07,18,08,50,13.70
2018,07,18,08,51,13.80
2018,07,18,08,52,13.80
2018,07,18,08,53,13.80
2018,07,18,08,54,13.70
2018,07,18,08,55,13.70
2018,07,18,08,56,13.70
2018,07,18,08,57,13.70
2018,07,18,08,58,13.70
2018,07,18,08,59,13.70
2018,07,18,09,00,13.70
2018,07,18,09,01,13.70
2018,07,18,09,02,13.70
2018,07,18,09,03,13.60
2018,07,18,09,04,13.60
2018,07,18,09,05,13.60
2018,07,18,09,06,13.70
2018,07,18,09,07,13.70
2018,07,18,09,08,13.70
2018,07,18,09,09,13.80
2018,07,18,09,10,13.80
2018,07,18,09,11,13.80
2018,07,18,09,12,13.80
2018,07,18,09,13,13.80
2018,07,18,09,14,13.80
2018,07,18,09,15,13.80
2018,07,18,09,16,13.80
2018,07,18,09,17,13.70
2018,07,18,09,18,13.70
2018,07,18,09,19,13.70
2018,07,18,09,20,13.80
2018,07,18,09,21,13.80
2018,07,18,09,22,13.90
2018,07,18,09,23,13.90
2018,07,18,09,24,13.90
2018,07,18,09,25,13.90
2018,07,18,09,26,13.90
2018,07,18,09,27,13.90
2018,07,18,09,28,13.90
2018,07,18,09,29,14.00
2018,07,18,09,30,14.00
2018,07,18,09,31,14.10
2018,07,18,09,32,14.10
2018,07,18,09,33,14.10
2018,07,18,09,34,14.10
2018,07,18,09,35,14.10
2018,07,18,09,36,14.20
2018,07,18,09,37,14.20
2018,07,18,09,38,14.20
2018,07,18,09,39,14.20
2018,07,18,09,40,14.30
2018,07,18,09,41,14.30
2018,07,18,09,42,14.40
2018,07,18,09,43,14.50
2018,07,18,09,44,14.60
2018,07,18,09,45,14.60
2018,07,18,09,46,14.60
2018,07,18,09,47,14.70
2018,07,18,09,48,14.80
2018,07,18,09,49,14.80
2018,07,18,09,50,14.80
2018,07,18,09,51,14.80
2018,07,18,09,52,14.80
2018,07,18,09,53,14.80
2018,07,18,09,54,14.80
2018,07,18,09,55,14.90
2018,07,18,09,56,14.90
2018,07,18,09,57,14.90
2018,07,18,09,58,15.00
2018,07,18,09,59,15.00
2018,07,18,10,00,15.10
2018,07,18,10,01,15.10
2018,07,18,10,02,15.00
2018,07,18,10,03,15.10
2018,07,18,10,04,15.10
2018,07,18,10,05,15.10
2018,07,18,10,06,15.20
2018,07,18,10,07,15.20
2018,07,18,10,08,15.30
2018,07,18,10,09,15.30
2018,07,18,10,10,15.40
2018,07,18,10,11,15.40
2018,07,18,10,12,15.50
2018,07,18,10,13,15.50
2018,07,18,10,14,15.50
2018,07,18,10,15,15.60
2018,07,18,10,16,15.60
2018,07,18,10,17,15.70
2018,07,18,10,18,15.60
2018,07,18,10,19,15.60
2018,07,18,10,20,15.70
2018,07,18,10,21,15.80
2018,07,18,10,22,15.80
2018,07,18,10,23,15.80
2018,07,18,10,24,15.90
2018,07,18,10,25,15.90
2018,07,18,10,26,15.90
2018,07,18,10,27,15.90
2018,07,18,10,28,15.90
2018,07,18,10,29,15.90
2018,07,18,10,30,16.00
2018,07,18,10,31,16.00
2018,07,18,10,32,15.90
2018,07,18,10,33,15.90
2018,07,18,10,34,16.10
2018,07,18,10,35,16.10
2018,07,18,10,36,16.10
2018,07,18,10,37,16.10
2018,07,18,10,38,16.10
2018,07,18,10,39,16.10
2018,07,18,10,40,16.10
2018,07,18,10,41,16.20
2018,07,18,10,42,16.20
2018,07,18,10,43,16.20
2018,07,18,10,44,16.20
2018,07,18,10,45,16.10
2018,07,18,10,46,16.10
2018,07,18,10,47,16.10
2018,07,18,10,48,16.10
2018,07,18,10,49,16.10
2018,07,18,10,50,16.10
2018,07,18,10,51,16.10
2018,07,18,10,52,16.10
2018,07,18,10,53,16.10
2018,07,18,10,54,16.10
2018,07,18,10,55,16.10
2018,07,18,10,56,16.10
2018,07,18,10,57,16.10
2018,07,18,10,58,16.10
2018,07,18,10,59,16.10
2018,07,18,11,00,16.20
2018,07,18,11,01,16.10
2018,07,18,11,02,16.10
2018,07,18,11,03,16.10
2018,07,18,11,04,16.10
2018,07,18,11,05,16.10
2018,07,18,11,06,16.10
2018,07,18,11,07,16.10
2018,07,18,11,08,15.90
2018,07,18,11,09,15.90
2018,07,18,11,10,15.90
2018,07,18,11,11,15.80
2018,07,18,11,12,15.80
2018,07,18,11,13,15.80
2018,07,18,11,14,15.80
2018,07,18,11,15,15.80
2018,07,18,11,16,15.70
2018,07,18,11,17,15.70
2018,07,18,11,18,15.70
2018,07,18,11,19,15.60
2018,07,18,11,20,15.70
2018,07,18,11,21,15.70
2018,07,18,11,22,15.80
2018,07,18,11,23,15.80
2018,07,18,11,24,15.80
2018,07,18,11,25,15.80
2018,07,18,11,26,15.80
2018,07,18,11,27,15.90
2018,07,18,11,28,15.90
2018,07,18,11,29,15.80
2018,07,18,11,30,15.70
2018,07,18,11,31,15.60
2018,07,18,11,32,15.40
2018,07,18,11,33,15.20
2018,07,18,11,34,15.10
2018,07,18,11,35,15.10
2018,07,18,11,36,15.00
2018,07,18,11,37,15.00
2018,07,18,11,38,15.00
2018,07,18,11,39,14.90
2018,07,18,11,40,14.90
2018,07,18,11,41,14.90
2018,07,18,11,42,14.80
2018,07,18,11,43,14.80
2018,07,18,11,44,14.70
2018,07,18,11,45,14.70
2018,07,18,11,46,14.70
2018,07,18,11,47,14.70
2018,07,18,11,48,14.70
2018,07,18,11,49,14.70
2018,07,18,11,50,14.80
2018,07,18,11,51,14.80
2018,07,18,11,52,14.80
2018,07,18,11,53,14.90
2018,07,18,11,54,14.90
2018,07,18,11,55,14.90
2018,07,18,11,56,14.90
2018,07,18,11,57,14.90
2018,07,18,11,58,14.90
2018,07,18,11,59,14.90
2018,07,18,12,00,14.90
2018,07,18,12,01,15.00
2018,07,18,12,02,15.00
2018,07,18,12,03,15.00
2018,07,18,12,04,15.00
2018,07,18,12,05,15.00
2018,07,18,12,06,15.00
2018,07,18,12,07,15.00
2018,07,18,12,08,15.10
2018,07,18,12,09,15.10
2018,07,18,12,10,15.20
2018,07,18,12,11,15.20
2018,07,18,12,12,15.30
2018,07,18,12,13,15.30
2018,07,18,12,14,15.30
2018,07,18,12,15,15.40
2018,07,18,12,16,15.40
2018,07,18,12,17,15.40
2018,07,18,12,18,15.40
2018,07,18,12,19,15.50
2018,07,18,12,20,15.50
2018,07,18,12,21,15.60
2018,07,18,12,22,15.60
2018,07,18,12,23,15.60
2018,07,18,12,24,15.70
2018,07,18,12,25,15.70
2018,07,18,12,26,15.80
2018,07,18,12,27,15.90
2018,07,18,12,28,16.10
2018,07,18,12,29,16.20
2018,07,18,12,30,16.40
2018,07,18,12,31,16.60
2018,07,18,12,32,16.80
2018,07,18,12,33,17.00
2018,07,18,12,34,17.10
2018,07,18,12,35,17.30
2018,07,18,12,36,17.40
2018,07,18,12,37,17.50
2018,07,18,12,38,17.60
2018,07,18,12,39,17.70
2018,07,18,12,40,17.80
2018,07,18,12,41,17.90
2018,07,18,12,42,18.10
2018,07,18,12,43,18.40
2018,07,18,12,44,18.60
2018,07,18,12,45,18.70
2018,07,18,12,46,18.80
2018,07,18,12,47,18.90
2018,07,18,12,48,19.00
2018,07,18,12,49,19.20
2018,07,18,12,50,19.50
2018,07,18,12,51,19.70
2018,07,18,12,52,20.00
2018,07,18,12,53,20.30
2018,07,18,12,54,20.50
2018,07,18,12,55,20.70
2018,07,18,12,56,20.80
2018,07,18,12,57,20.90
2018,07,18,12,58,21.00
2018,07,18,12,59,21.00
2018,07,18,13,00,21.10
2018,07,18,13,01,21.30
2018,07,18,13,02,21.40
2018,07,18,13,03,21.60
2018,07,18,13,04,21.70
2018,07,18,13,05,21.80
2018,07,18,13,06,22.00
2018,07,18,13,07,22.00
2018,07,18,13,08,22.10
2018,07,18,13,09,22.20
2018,07,18,13,10,22.20
2018,07,18,13,11,22.20
2018,07,18,13,12,22.20
2018,07,18,13,13,22.30
2018,07,18,13,14,22.20
2018,07,18,13,15,22.10
2018,07,18,13,16,22.10
2018,07,18,13,17,22.10
2018,07,18,13,18,22.00
2018,07,18,13,19,22.10
2018,07,18,13,20,22.20
2018,07,18,13,21,22.30
2018,07,18,13,22,22.40
2018,07,18,13,23,22.60
2018,07,18,13,24,22.70
2018,07,18,13,25,22.90
2018,07,18,13,26,23.10
2018,07,18,13,27,23.30
2018,07,18,13,28,23.40
2018,07,18,13,29,23.40
2018,07,18,13,30,23.40
2018,07,18,13,31,23.50
2018,07,18,13,32,23.50
2018,07,18,13,33,23.40
2018,07,18,13,34,23.40
2018,07,18,13,35,23.40
2018,07,18,13,36,23.40
2018,07,18,13,37,23.30
2018,07,18,13,38,23.50
2018,07,18,13,39,23.70
2018,07,18,13,40,23.80
2018,07,18,13,41,23.80
2018,07,18,13,42,24.00
2018,07,18,13,43,24.10
2018,07,18,13,44,24.10
2018,07,18,13,45,24.00
2018,07,18,13,46,23.90
2018,07,18,13,47,23.80
2018,07,18,13,48,23.90
2018,07,18,13,49,23.90
2018,07,18,13,50,24.10
2018,07,18,13,51,24.30
2018,07,18,13,52,24.50
2018,07,18,13,53,24.50
2018,07,18,13,54,24.60
2018,07,18,13,55,24.60
2018,07,18,13,56,24.60
2018,07,18,13,57,24.70
2018,07,18,13,58,24.60
2018,07,18,13,59,24.70
2018,07,18,14,00,24.70
2018,07,18,14,01,24.50
2018,07,18,14,02,24.30
2018,07,18,14,03,24.10
2018,07,18,14,04,24.10
2018,07,18,14,05,24.10
2018,07,18,14,06,24.00
2018,07,18,14,07,23.90
2018,07,18,14,08,24.10
2018,07,18,14,09,24.10
2018,07,18,14,10,23.90
2018,07,18,14,11,23.80
2018,07,18,14,12,23.80
2018,07,18,14,13,23.80
2018,07,18,14,14,23.90
2018,07,18,14,15,24.00
2018,07,18,14,16,24.10
2018,07,18,14,17,24.20
2018,07,18,14,18,24.40
2018,07,18,14,19,24.50
2018,07,18,14,20,24.70
2018,07,18,14,21,24.80
2018,07,18,14,22,24.80
2018,07,18,14,23,24.80
2018,07,18,14,24,24.80
2018,07,18,14,25,24.90
2018,07,18,14,26,24.90
2018,07,18,14,27,25.10
2018,07,18,14,28,25.10
2018,07,18,14,29,25.20
2018,07,18,14,30,25.30
2018,07,18,14,31,25.40
2018,07,18,14,32,25.40
2018,07,18,14,33,25.50
2018,07,18,14,34,25.50
2018,07,18,14,35,25.50
2018,07,18,14,36,25.50
2018,07,18,14,37,25.60
2018,07,18,14,38,25.70
2018,07,18,14,39,25.60
2018,07,18,14,40,25.70
2018,07,18,14,41,25.90
2018,07,18,14,42,26.10
2018,07,18,14,43,26.20
2018,07,18,14,44,26.30
2018,07,18,14,45,26.30
2018,07,18,14,46,26.30
2018,07,18,14,47,26.30
2018,07,18,14,48,26.30
2018,07,18,14,49,26.30
2018,07,18,14,50,26.40
2018,07,18,14,51,26.40
2018,07,18,14,52,26.60
2018,07,18,14,53,26.50
2018,07,18,14,54,26.30
2018,07,18,14,55,26.10
2018,07,18,14,56,25.90
2018,07,18,14,57,25.90
2018,07,18,14,58,25.80
2018,07,18,14,59,25.60
2018,07,18,15,00,25.50
2018,07,18,15,01,25.50
2018,07,18,15,02,25.40
2018,07,18,15,03,25.30
2018,07,18,15,04,25.30
2018,07,18,15,05,25.20
2018,07,18,15,06,25.00
2018,07,18,15,07,24.70
2018,07,18,15,08,24.50
2018,07,18,15,09,24.40
2018,07,18,15,10,24.30
2018,07,18,15,11,24.20
2018,07,18,15,12,24.00
2018,07,18,15,13,23.80
2018,07,18,15,14,23.60
2018,07,18,15,15,23.60
2018,07,18,15,16,23.40
2018,07,18,15,17,23.30
2018,07,18,15,18,23.30
2018,07,18,15,19,23.30
2018,07,18,15,20,23.20
2018,07,18,15,21,23.00
2018,07,18,15,22,22.90
2018,07,18,15,23,22.60
2018,07,18,15,24,22.40
2018,07,18,15,25,22.10
2018,07,18,15,26,21.90
2018,07,18,15,27,21.70
2018,07,18,15,28,21.70
2018,07,18,15,29,21.70
2018,07,18,15,30,21.60
2018,07,18,15,31,21.60
2018,07,18,15,32,21.70
2018,07,18,15,33,21.80
2018,07,18,15,34,21.90
2018,07,18,15,35,22.00
2018,07,18,15,36,22.00
2018,07,18,15,37,22.10
2018,07,18,15,38,22.20
2018,07,18,15,39,22.30
2018,07,18,15,40,22.20
2018,07,18,15,41,22.20
2018,07,18,15,42,22.20
2018,07,18,15,43,22.30
2018,07,18,15,44,22.30
2018,07,18,15,45,22.20
2018,07,18,15,46,22.30
2018,07,18,15,47,22.30
2018,07,18,15,48,22.40
2018,07,18,15,49,22.40
2018,07,18,15,50,22.30
2018,07,18,15,51,22.30
2018,07,18,15,52,22.40
2018,07,18,15,53,22.30
2018,07,18,15,54,22.20
2018,07,18,15,55,22.20
2018,07,18,15,56,22.20
2018,07,18,15,57,22.20
2018,07,18,15,58,22.10
2018,07,18,15,59,22.10
2018,07,18,16,00,22.00
2018,07,18,16,01,22.00
2018,07,18,16,02,21.90
2018,07,18,16,03,21.90
2018,07,18,16,04,21.90
2018,07,18,16,05,21.90
2018,07,18,16,06,21.80
2018,07,18,16,07,21.80
2018,07,18,16,08,21.70
2018,07,18,16,09,21.80
2018,07,18,16,10,21.70
2018,07,18,16,11,21.60
2018,07,18,16,12,21.60
2018,07,18,16,13,21.60
2018,07,18,16,14,21.60
2018,07,18,16,15,21.50
2018,07,18,16,16,21.40
2018,07,18,16,17,21.30
2018,07,18,16,18,21.40
2018,07,18,16,19,21.40
2018,07,18,16,20,21.50
2018,07,18,16,21,21.60
2018,07,18,16,22,21.60
2018,07,18,16,23,21.60
2018,07,18,16,24,21.60
2018,07,18,16,25,21.60
2018,07,18,16,26,21.60
2018,07,18,16,27,21.60
2018,07,18,16,28,21.60
2018,07,18,16,29,21.40
2018,07,18,16,30,21.30
2018,07,18,16,31,21.40
2018,07,18,16,32,21.40
2018,07,18,16,33,21.30
2018,07,18,16,34,21.30
2018,07,18,16,35,21.30
2018,07,18,16,36,21.30
2018,07,18,16,37,21.30
2018,07,18,16,38,21.30
2018,07,18,16,39,21.20
2018,07,18,16,40,21.10
2018,07,18,16,41,21.10
2018,07,18,16,42,21.00
2018,07,18,16,43,20.90
2018,07,18,16,44,21.00
2018,07,18,16,45,20.80
2018,07,18,16,46,20.80
2018,07,18,16,47,20.90
2018,07,18,16,48,20.80
2018,07,18,16,49,20.80
2018,07,18,16,50,20.80
2018,07,18,16,51,20.80
2018,07,18,16,52,20.90
2018,07,18,16,53,20.90
2018,07,18,16,54,20.90
2018,07,18,16,55,20.80
2018,07,18,16,56,20.80
2018,07,18,16,57,20.70
2018,07,18,16,58,20.70
2018,07,18,16,59,20.70
2018,07,18,17,00,20.70
2018,07,18,17,01,20.70
2018,07,18,17,02,20.70
2018,07,18,17,03,20.70
2018,07,18,17,04,20.70
2018,07,18,17,05,20.80
2018,07,18,17,06,20.80
2018,07,18,17,07,20.80
2018,07,18,17,08,20.70
2018,07,18,17,09,20.80
2018,07,18,17,10,20.90
2018,07,18,17,11,20.90
2018,07,18,17,12,20.90
2018,07,18,17,13,20.80
2018,07,18,17,14,20.80
2018,07,18,17,15,20.70
2018,07,18,17,16,20.60
2018,07,18,17,17,20.60
2018,07,18,17,18,20.60
2018,07,18,17,19,20.60